Find Local Weather

World > North America > United States > Washington

Blaine, Washington Regional Weather

Lat: 48.99N, Lon: 122.76W
Wx Zone: WAZ503
Warning FLW WEATHER ALERT - (More Info. Click Here) Warning
Feedback
Expires:201901231600;;804404
ASUS46 KSEW 231510
RWRWA 

WASHINGTON REGIONAL WEATHER ROUNDUP
NATIONAL WEATHER SERVICE SEATTLE WA
700 AM PST WED JAN 23 2019

NOTE:"FAIR" INDICATES FEW OR NO CLOUDS BELOW 12,000 FEET WITH NO 
SIGNIFICANT WEATHER AND/OR OBSTRUCTIONS TO VISIBILITY.


WAZ001-503-506-510-514-515-231600-
NORTH INTERIOR
  
CITY           SKY/WX    TMP DP  RH WIND       PRES   REMARKS
BELLINGHAM     CLOUDY    40  38  93 NW7       30.10R FOG              
FRIDAY HARBOR  CLOUDY    44  41  89 N5        30.11R                  
EASTSOUND      CLOUDY    45  43  93 NW14G21   30.11R                  
PORT ANGELES   LGT RAIN  43  41  93 SE10      30.13R FOG              
EDIZ HOOK      DRIZZLE   43  42  97 S5        30.14R                  
PORT TOWNSEND  LGT RAIN  45  43  93 W7        30.12R                  
NAS WHIDBEY    CLOUDY    46  40  79 N10G21    30.14                   
ARLINGTON      CLOUDY    48  47  96 SW3       30.08R                  
BURLINGTON     CLOUDY    41  41 100 NW16      30.08R                  
$$
 

SKY/WX - Weather  TMP - Temperature  DP - Dew Point  RH - Relative Humidity
WIND - Wind Direction/Speed PRES - Barometric Pressure